PSLV R/B, 43287

Orbit data source: Space-Track

PSLV R/B, 43287 is space debris in HEO originally from a launch on Wed, 11 Apr 2018 UTC launched from the Sirharikota (SRI). Debris objects in space refer to the collection of defunct objects orbiting the Earth. Examples of debris include non-operational satellites, rocket bodies, and fragments generated from explosions, collisions, or faulty payload assembly.

Loading next visibility...
Identifier
43287, 2018-035B
Orbit
HEO
Country
Flag of ININ / IND
Related business
Manufacturer
VSSC/LPSC
Mission
Spacecraft
Bus & Motor
PS-4, Unknown motor
Mass
920 kg wet, 920 kg dry
Launch date (UTC)
2018-04-11 (8 years ago)
Launch vehicle
Unknown
Launch site
Sirharikota (SRI)
Object type
Payload
Rocket body
Debris
Shape & HBR
Cyl + Cyl + 2 Nozzle, 1.6 m
Radar Cross Section
3.727 m², Large (>1 m²)

Expand to show TLE details & history
Last TLE update: 1 day ago

TLE from 1 day ago
0 PSLV R/B
1 43287U 18035B   25342.02897855  .00015789  00000-0  11095-2 0  9999
2 43287  19.0353 263.9684 5648370 218.8909  82.5949  4.62982937117326
Epoch: 2025-12-08T00:41Z
TLE epoch observation values (Epoch: 2025-12-08T00:41:43.746Z)
Latitude
0.0001°
Longitude
176.53101°
Altitude
12,117.22 km
Speed
4.11 km/s
True Right ascension
17h 35m 59s
True Declination
0° 00' 00"
Sunlit
Object was in daylight at epoch
Visualization orbit readout
Latitude
Unknown
Longitude
Unknown
Altitude
Unknown
Speed
Unknown
Apparent Right ascension
Unknown
Apparent Declination
Unknown
Sunlit
N/A
Visualization observer readout
Local Sidereal Time
22:39:37
Azimuth
Unknown
Elevation
Unknown
Doppler factor
Unknown
Orbital elements
Apogee altitude
17,424.128 km
Perigee altitude
240.996 km
Semi-major axis
15,210.699 km
Eccentricity
0.56484
Inclination
19.0353°
RAAN
263.9684°
Arg. of periapsis
218.8909°
True anomaly
141.17614°
Mean anomaly
82.5949°
Eccentric anomaly
112.49524°
Mean motion
1.15696 °/min
Orbital period
311.16 mins
BSTAR
0.0011095
Loading maneuver chart data...
Computing Atmospheric mass density...
Loading historical data...
Loading historical data...
Loading historical data...
Loading historical data...
Loading historical data...
Loading historical data...
Loading historical data...
Other satellites on launch #35 in the year 2018 (2018-04-11 UTC)

Documentation

Showing up to 5 results
|